Weather History for Batman, Turkey

Change the Weather History Date:

Thursday, April 12, 2012

  Actual Average (LTCC) Record (LTCC)
Temperature  
Mean Temperature 61 °F -  
Max Temperature 69 °F 66 °F 80 °F (1998)
Min Temperature 51 °F 42 °F 26 °F (1997)
Degree Days  
Heating Degree Days 4    
Growing Degree Days 11 (Base 50)    
Moisture  
Dew Point 49 °F    
Average Humidity 70    
Maximum Humidity 94    
Minimum Humidity 35    
Precipitation  
Precipitation 0.00 in - - ()
Sea Level Pressure  
Sea Level Pressure 29.81 in    
Wind  
Wind Speed 5 mph ()    
Max Wind Speed 12 mph    
Max Gust Speed -    
Visibility 6.2 miles    
Events      
Averages and records for this station are not official NWS values.
T = Trace of Precipitation, MM = Missing Value Source: Averaged Metar Reports

Daily Weather History Graph

Daily Weather History Graph

Search for Another Location

Airport:

Trip Planner

Search our weather history database for the weather conditions in past years. The results will help you decide how hot, cold, wet, or windy it might be!

Date:

Astronomy

Apr. 12, 2012 Rise Set
Actual Time 5:44 AM EEST 6:48 PM EEST
Civil Twilight 5:17 AM EEST 7:15 PM EEST
Nautical Twilight 4:45 AM EEST 7:48 PM EEST
Astronomical Twilight 4:11 AM EEST 8:21 PM EEST
Moon 12:14 AM EEST (4/12) 10:18 AM EEST (4/12)
Length of Visible Light 13h 58m
Length of Day
13h 04m
Waning Gibbous, 62% of the Moon is Illuminated
Apr 12
Waning Gibbous
Apr 13
Last Quarter
Apr 21
New
Apr 29
First Quarter
May 6
Full

Hourly Weather History & Observations

Time (EEST) Temp. Dew Point Humidity Pressure Visibility Wind Dir Wind Speed Gust Speed Precip Events Conditions
12:20 AM 57.2 °F 51.8 °F 82% 29.80 in 6.2 mi Variable 5.8 mph - N/A   Scattered Clouds
12:50 AM 57.2 °F 51.8 °F 82% 29.80 in 6.2 mi ENE 6.9 mph - N/A   Mostly Cloudy
1:20 AM 57.2 °F 51.8 °F 82% 29.80 in 6.2 mi NE 8.1 mph - N/A   Mostly Cloudy
1:50 AM 57.2 °F 50.0 °F 77% 29.77 in 6.2 mi SSE 4.6 mph - N/A   Scattered Clouds
2:20 AM 57.2 °F 50.0 °F 77% 29.80 in 6.2 mi East 4.6 mph - N/A   Mostly Cloudy
2:50 AM 57.2 °F 50.0 °F 77% 29.80 in 6.2 mi ENE 4.6 mph - N/A   Mostly Cloudy
3:20 AM 55.4 °F 50.0 °F 82% 29.77 in 6.2 mi Variable 2.3 mph - N/A   Mostly Cloudy
3:50 AM 55.4 °F 50.0 °F 82% 29.80 in 6.2 mi NNE 3.5 mph - N/A   Mostly Cloudy
4:20 AM 55.4 °F 50.0 °F 82% 29.77 in 6.2 mi NE 2.3 mph - N/A   Mostly Cloudy
4:50 AM 53.6 °F 50.0 °F 88% 29.77 in 6.2 mi NNW 3.5 mph - N/A   Mostly Cloudy
5:20 AM 53.6 °F 50.0 °F 88% 29.77 in 6.2 mi SW 3.5 mph - N/A   Mostly Cloudy
5:50 AM 53.6 °F 51.8 °F 94% 29.77 in 6.2 mi SE 3.5 mph - N/A   Scattered Clouds
6:20 AM 53.6 °F 51.8 °F 94% 29.80 in 6.2 mi Calm Calm - N/A   Scattered Clouds
6:50 AM 53.6 °F 51.8 °F 94% 29.80 in 6.2 mi South 1.2 mph - N/A   Mostly Cloudy
7:20 AM 55.4 °F 53.6 °F 94% 29.80 in 6.2 mi SW 4.6 mph - N/A   Mostly Cloudy
7:50 AM 55.4 °F 51.8 °F 88% 29.80 in 6.2 mi SSW 3.5 mph - N/A   Scattered Clouds
8:20 AM 57.2 °F 53.6 °F 88% 29.80 in 6.2 mi SW 4.6 mph - N/A   Scattered Clouds
8:50 AM 57.2 °F 53.6 °F 88% 29.83 in 6.2 mi WSW 6.9 mph - N/A   Scattered Clouds
9:20 AM 60.8 °F 55.4 °F 82% 29.83 in 6.2 mi Variable 2.3 mph - N/A   Scattered Clouds
9:50 AM 60.8 °F 55.4 °F 82% 29.83 in 6.2 mi West 4.6 mph - N/A   Scattered Clouds
10:20 AM 62.6 °F 53.6 °F 72% 29.83 in 6.2 mi WSW 8.1 mph - N/A   Mostly Cloudy
10:50 AM 64.4 °F 53.6 °F 68% 29.83 in 6.2 mi SW 6.9 mph - N/A   Scattered Clouds
11:20 AM 64.4 °F 48.2 °F 56% 29.83 in 6.2 mi Variable 3.5 mph - N/A   Scattered Clouds
11:50 AM 66.2 °F 50.0 °F 56% 29.83 in 6.2 mi West 5.8 mph - N/A   Scattered Clouds
12:20 PM 66.2 °F 48.2 °F 52% 29.83 in 6.2 mi West 6.9 mph - N/A   Scattered Clouds
1:20 PM 68.0 °F 46.4 °F 46% 29.80 in 6.2 mi SW 6.9 mph - N/A   Scattered Clouds
1:50 PM 68.0 °F 46.4 °F 46% 29.80 in 6.2 mi Variable 5.8 mph - N/A   Mostly Cloudy
2:20 PM 69.8 °F 41.0 °F 35% 29.80 in 6.2 mi WNW 4.6 mph - N/A   Scattered Clouds
2:50 PM 69.8 °F 46.4 °F 43% 29.80 in 6.2 mi WNW 8.1 mph - N/A   Scattered Clouds
3:20 PM 69.8 °F 46.4 °F 43% 29.80 in 6.2 mi WNW 9.2 mph - N/A   Scattered Clouds
3:50 PM 69.8 °F 46.4 °F 43% 29.80 in 6.2 mi West 8.1 mph - N/A   Scattered Clouds
4:20 PM 69.8 °F 46.4 °F 43% 29.80 in 6.2 mi West 11.5 mph - N/A   Scattered Clouds
4:50 PM 68.0 °F 46.4 °F 46% 29.80 in 6.2 mi WNW 11.5 mph - N/A   Scattered Clouds
5:20 PM 68.0 °F 46.4 °F 46% 29.80 in 6.2 mi WNW 9.2 mph - N/A   Scattered Clouds
5:50 PM 66.2 °F 46.4 °F 49% 29.80 in 6.2 mi NW 10.4 mph - N/A   Scattered Clouds
6:20 PM 64.4 °F 46.4 °F 52% 29.80 in 6.2 mi NW 6.9 mph - N/A   Scattered Clouds
6:50 PM 62.6 °F 48.2 °F 59% 29.80 in 6.2 mi NW 6.9 mph - N/A   Scattered Clouds
7:20 PM 62.6 °F 46.4 °F 55% 29.80 in - NW 9.2 mph - N/A   Clear
7:50 PM 57.2 °F 48.2 °F 72% 29.83 in - NE 5.8 mph - N/A   Clear
8:20 PM 59.0 °F 46.4 °F 63% 29.83 in - Variable 4.6 mph - N/A   Clear
8:50 PM 57.2 °F 46.4 °F 67% 29.83 in - Variable 2.3 mph - N/A   Clear
9:20 PM 55.4 °F 46.4 °F 72% 29.83 in - Variable 2.3 mph - N/A   Clear
9:50 PM 53.6 °F 44.6 °F 72% 29.86 in - NNE 4.6 mph - N/A   Clear
10:20 PM 53.6 °F 46.4 °F 77% 29.86 in - Variable 1.2 mph - N/A   Clear
10:50 PM 53.6 °F 46.4 °F 77% 29.86 in - SW 5.8 mph - N/A   Clear
11:20 PM 53.6 °F 46.4 °F 77% 29.86 in - WSW 3.5 mph - N/A   Clear
11:50 PM 51.8 °F 46.4 °F 82% 29.86 in - WSW 3.5 mph - N/A   Clear